DJ6OI-23 Weather Reports


Display with metric or nautical units.
time (UTC)temp
F
wind
direction
speed
MPH
gust
MPH
rain 1hr
in
rain 24hr
in
rain mn
in
humidity
%
barometer
mb
20260903232638 64 0.0 0.0 0.00 0.00 0.00 94 996.5
20260903231103 64 0.0 0.0 0.00 0.00 0.00 93 996.5
20260903225528 65 0.0 0.0 0.00 0.00 0.00 93 996.8
20260903223953 65 0.0 0.0 0.00 0.00 0.00 93 997.0
20260903222418 65 0.0 0.0 0.00 0.00 0.00 93 996.8
20260903220843 65 0.0 0.0 0.00 0.00 0.00 93 997.0
20260903215308 65 0.0 0.0 0.00 0.00 0.00 94 996.9
20260903212158 65 0.0 0.0 0.00 0.00 0.00 93 997.0
20260903210623 65 0.0 0.0 0.00 0.00 0.00 93 997.0
20260903205049 65 0.0 0.0 0.00 0.00 0.00 93 996.8
20260903203514 65 0.0 0.0 0.00 0.00 0.00 92 996.8
20260903201939 65 0.0 0.0 0.00 0.00 0.00 92 996.8
20260903200404 65 0.0 0.0 0.00 0.00 0.00 92 996.8
20260903194829 65 0.0 0.0 0.00 0.00 0.00 91 996.9
20260903193254 65 0.0 0.0 0.00 0.00 0.00 92 997.0
20260903191719 64 0.0 0.0 0.00 0.00 0.00 91 997.0
20260903190144 64 0.0 0.0 0.00 0.00 0.00 91 996.9
20260903184609 64 0.0 0.0 0.00 0.00 0.00 90 996.9
20260903183034 64 0.0 0.0 0.00 0.00 0.00 89 996.6
20260903181459 66 0.0 0.0 0.00 0.00 0.00 87 996.7
20260903175925 66 0.0 0.0 0.00 0.00 0.00 87 996.7
20260903174350 66 0.0 0.0 0.00 0.00 0.00 85 996.6
20260903172815 68 0.0 0.0 0.00 0.00 0.00 83 996.7
20260903171240 69 0.0 0.0 0.00 0.00 0.00 82 996.5
20260903165705 68 0.0 0.0 0.00 0.00 0.00 83 996.5
20260903164130 69 0.0 0.0 0.00 0.00 0.00 82 996.6
20260903162555 69 0.0 0.0 0.00 0.00 0.00 81 996.7
20260903161020 71 0.0 0.0 0.00 0.00 0.00 77 996.6
20260903155445 71 0.0 0.0 0.00 0.00 0.00 77 996.5
20260903153910 73 0.0 0.0 0.00 0.00 0.00 73 996.7
20260903152335 71 0.0 0.0 0.00 0.00 0.00 75 996.8
20260903150800 72 0.0 0.0 0.00 0.00 0.00 74 997.0
20260903145225 67 0.0 0.0 0.00 0.00 0.00 80 997.1
20260903143650 67 0.0 0.0 0.00 0.00 0.00 78 997.0
20260903142116 68 0.0 0.0 0.00 0.00 0.00 76 997.0
20260903140541 69 0.0 0.0 0.00 0.00 0.00 74 996.9
20260903135006 68 0.0 0.0 0.00 0.00 0.00 75 997.0
20260903133431 68 0.0 0.0 0.00 0.00 0.00 73 997.0
20260903131856 68 0.0 0.0 0.00 0.00 0.00 72 997.1
20260903130321 68 0.0 0.0 0.00 0.00 0.00 73 997.1
20260903124746 67 0.0 0.0 0.00 0.00 0.00 73 997.2
20260903123211 68 0.0 0.0 0.00 0.00 0.00 70 997.0
20260903121636 69 0.0 0.0 0.00 0.00 0.00 68 996.9
20260903120101 69 0.0 0.0 0.00 0.00 0.00 67 996.9
20260903114526 70 0.0 0.0 0.00 0.00 0.00 65 996.7
20260903112952 70 0.0 0.0 0.00 0.00 0.00 64 996.9
20260903111417 72 0.0 0.0 0.00 0.00 0.00 60 996.5
20260903105842 74 0.0 0.0 0.00 0.00 0.00 58 996.3
20260903104307 76 0.0 0.0 0.00 0.00 0.00 56 996.4
20260903102732 76 0.0 0.0 0.00 0.00 0.00 57 996.6
20260903095622 78 0.0 0.0 0.00 0.00 0.00 55 996.7
20260903094047 78 0.0 0.0 0.00 0.00 0.00 57 996.7
20260903092512 76 0.0 0.0 0.00 0.00 0.00 60 996.8
20260903090937 74 0.0 0.0 0.00 0.00 0.00 62 996.8
20260903085402 74 0.0 0.0 0.00 0.00 0.00 63 997.1
20260903083827 73 0.0 0.0 0.00 0.00 0.00 64 997.3
20260903082252 73 0.0 0.0 0.00 0.00 0.00 65 997.3
20260903080718 73 0.0 0.0 0.00 0.00 0.00 67 997.6
20260903075143 70 0.0 0.0 0.00 0.00 0.00 71 997.6
20260903073608 70 0.0 0.0 0.00 0.00 0.00 72 997.8
20260903072033 67 0.0 0.0 0.00 0.00 0.00 76 997.9
20260903070458 65 0.0 0.0 0.00 0.00 0.00 80 998.1
20260903064923 64 0.0 0.0 0.00 0.00 0.00 82 997.8
20260903063348 62 0.0 0.0 0.00 0.00 0.00 85 997.6
20260903061813 61 0.0 0.0 0.00 0.00 0.00 86 997.8
20260903060238 60 0.0 0.0 0.00 0.00 0.00 88 998.0
20260903054703 59 0.0 0.0 0.00 0.00 0.00 90 998.1
20260903053128 59 0.0 0.0 0.00 0.00 0.00 90 998.3
20260903051554 58 0.0 0.0 0.00 0.00 0.00 91 998.4
20260903050019 57 0.0 0.0 0.00 0.00 0.00 92 998.4
20260903044444 56 0.0 0.0 0.00 0.00 0.00 92 998.6
20260903042909 56 0.0 0.0 0.00 0.00 0.00 93 998.6
20260903041334 55 0.0 0.0 0.00 0.00 0.00 93 998.6
20260903035759 55 0.0 0.0 0.00 0.00 0.00 93 998.6
20260903034224 54 0.0 0.0 0.00 0.00 0.00 93 998.6
20260903032649 53 0.0 0.0 0.00 0.00 0.00 91 998.7
20260903025540 55 0.0 0.0 0.00 0.00 0.00 90 998.8
20260903024004 55 0.0 0.0 0.00 0.00 0.00 89 999.0
20260903022430 55 0.0 0.0 0.00 0.00 0.00 89 999.2
20260903020855 55 0.0 0.0 0.00 0.00 0.00 88 999.4
20260903015320 55 0.0 0.0 0.00 0.00 0.00 88 999.5
20260903013745 55 0.0 0.0 0.00 0.00 0.00 87 999.4
20260903012210 56 0.0 0.0 0.00 0.00 0.00 86 999.4
20260903010635 55 0.0 0.0 0.00 0.00 0.00 85 999.5
20260903005100 56 0.0 0.0 0.00 0.00 0.00 84 999.4
20260903003525 57 0.0 0.0 0.00 0.00 0.00 83 999.5
20260903001950 57 0.0 0.0 0.00 0.00 0.00 82 999.5
20260903000417 57 0.0 0.0 0.00 0.00 0.00 82 999.6